Location: ActonStarParty
(42.4766°N, 71.4538°W)
Time: 09:06:13
(UTC-04:00)

H-2A R/B - Pass Details

Date: 19 April 2018
Orbit: 734 x 837 km, 98.3° (Epoch: 22 May)

Event Time Altitude Azimuth Distance (km) Brightness Sun altitude
Exits shadow 20:58:30 23° 109° (ESE) 1,569 3.0 -15.3°
Maximum altitude 21:00:37 33° 68° (ENE) 1,275 2.8 -15.6°
Drops below altitude 10° 21:05:02 10° 6° (N) 2,276 4.8 -16.3°
Sets 21:07:29 0° 357° (N) 3,194 5.8 -16.7°
